Погода в Троице

Россия / Рязанская область     54°01′34″N   40°14′02″E
темп.,
°C
ветер,
м/с
пор.,
м/с
влажн.,
%
обл.,
%
осадки,
мм/ч
давл.,
гПа
погр.,
м
17 апреля, сб
сб1700:00+11св369193 2.4 1018164
03:00+10в3790100 2.5 1019141
06:00+10всв5109199 0.1 1018250
09:00+12в71079100 0.1 1018548
12:00+16юв5863100 0.1 10181267
15:00+15вюв5967100 1.5 10171086
18:00+11юз358798 3.5 1018490
21:00+8ю2392100 5.4 1020253
18 апреля, вс
вс1800:00+8ююв2292100 0.2 102075
03:00+7юв1192100 0.2 102010
06:00+6юв119245 0.0 102020
09:00+10вюв127631 0.0 1020594
12:00+12юв336360 1.2 10201122
15:00+12в346595 3.5 1020950
18:00+8всв61086100 1.4 1021585
21:00+7в588788 1.8 1022444
19 апреля, пн
пн1900:00+7в4789100 0.0 1022357
03:00+7всв4890100 0.0 1023424
06:00+6всв599192 0.0 1023520
09:00+7всв6886100 0.0 1023683
12:00+7в6984100 0.1 1023784
15:00+8в7978100 0.1 1023874
18:00+7в61279100 0.0 1023805
21:00+7в61369100 0.0 1023647
20 апреля, вт
вт2000:00+6в61377100 0.0 1022566
03:00+4в714845 0.0 1021530
06:00+4в71386100 0.0 1020669
09:00+5в81685100 0.0 1018698
12:00+6в91782100 0.0 1017813
15:00+7в111986100 1.5 1013990
18:00+7вюв132489100 8.4 10091194
21:00+8вюв122389100 13.2 10071286
21 апреля, ср
ср2100:00+8юв102190100 1.5 10061173
03:00+10юв9169074 2.1 1005986
06:00+9ююв91585100 0.5 10051228
09:00+9ююв91587100 0.9 10061151
12:00+8юз81178100 0.3 10111082
15:00+10ююз61065100 0.3 10131529
18:00+10ю61174100 0.1 1015699
21:00+8ю498591 0.2 1017243